If you wish to contribute or participate in the discussions about articles you are invited to join SKYbrary as a registered user

 Actions

Mahshahr Airport

From SKYbrary Wiki

OIAM
Airport
ICAO: OIAM – IATA: MRX
Summary
Name Mahshahr Airport
Region Middle East
Territory Iran IR.gif
Location Bandar Mahshahr, Khuzestan Province
Serving Bandar Mashahr
Elevation 2.438 m
8 ft2.438 m
Coordinates 30° 32' 58.84" N, 49° 9' 10.93" E
Runways
Designator Length Width Surface ROPS
14/32 2705 m8,874.672 ft
45 m147.638 ft
ASP /


METAR
Observation OIAM 092100Z 30008KT CAVOK 33/17 Q0995
Station Bandar Mahshahr / Mahshahr
Date/Time 09 August 2020 21:00:00
Wind direction 300°
Wind speed 08 kts
Lowest cloud amount clouds and visibility OK
Temperature 33°C
Dew point 17°C
Humidity 38%
QNH 995 hPa
Weather condition n/a

Airport serving the city of Bandar Mahshahr, Iran

Climatology

Warm Desert climate (Köppen climate classification BWh).

Maps

Terrain

Loading map...

Airport Layout

Loading map...


Accidents & Serious Incidents at or in vicinity of OIAM

None on SKYbrary